Location: Heppenheim
(49.6410°N, 8.6370°E)
Time: 16:43:14
(UTC+02:00)

ISS - Pass Details

Date: 09 May 2026
Orbit: 414 x 424 km, 51.6° (Epoch: 10 May)

Event Time Altitude Azimuth Distance (km) Brightness Sun altitude
Rises 00:03:52 0° 258° (WSW) 2,349 0.1 -20.9°
Reaches altitude 10° 00:05:57 10° 260° (W) 1,488 -0.9 -21.0°
Enters shadow 00:08:14 40° 269° (W) 627 -2.8 -21.1°
